Location: Newark
(47.9297°N, 19.1367°E)
Time: 21:41:00
(UTC+00:00)

ISS - Pass Details

Date: 26 September 2020
Orbit: 417 x 420 km, 51.6° (Epoch: 22 October)

Event Time Altitude Azimuth Distance (km) Brightness Sun altitude
Rises 16:38:22 0° 258° (WSW) 2,361 2.3 -1.8°
Reaches altitude 10° 16:40:29 10° 262° (W) 1,500 1.1 -2.2°
Maximum altitude 16:43:49 60° 344° (NNW) 484 -3.3 -2.7°
Drops below altitude 10° 16:47:10 10° 65° (ENE) 1,505 -1.5 -3.3°
Enters shadow 16:48:39 - 68° (ENE) 2,107 -0.8 -3.6°
Exits shadow 17:24:14 -74° 87° (E) 12,710 3.7 -9.5°
